星链-37896(STARLINK-37896)

导读

STARLINK-37896(NORAD编号69970)是美国SpaceX公司星链星座的通信卫星,属于2026年5月下旬从卡纳维拉尔角太空军基地发射的Starlink 2026-117批次卫星之一,搭载猎鹰9号火箭送入近地轨道。 作为星链第二代组网卫星,它主要承担全球低延迟高速互联网接入服务,面向偏远地区、移动场景用户提供通信支持。该卫星遵循2026年星链轨道调整策略,运行于约480公里高度的轨道,若出现故障可在数月内被动离轨,降低太空碰撞风险,目前在轨运行状态稳定。

基本信息
目录编号:
69970
目录名称:
STARLINK-37896
国际标识:
2026-157AD
轨道中心:
EARTH
卫星名称:
星链-37896
卫星全名:
星链-37896(STARLINK-37896)
卫星状态:
在轨 (已飞行58 天)
发射日期:
2026-07-09 UTC
国别 :
美国 (US)
星等 :
--
轨道信息
数据来源 国际轨道数据
星历时间: 2026-09-05T04:22:44+0800
11小时前
查看轨道信息
半长轴: 6840.815km
偏心率: 0.0001353
轨道倾角: 53.162°
近地点辐角 56.896°
升交点赤经 46.621°
平近点角 303.218°
近地点: 461.752km
远地点: 463.604km
周期: 93.847分钟
每日圈数: 15.344087
详细信息
固有亮度:
5
最大亮度:
2.5
卫星平台:
Starlink V1.0
覆盖范围:
全球
运营商:
太空探索技术公司
运营商所在国:
美国
制造商(研发单位):
太空探索技术公司
制造商所在国:
美国
使用方式:
暂无
卫星简介
Starlink 计划是 SpaceX 推出的全球卫星互联网项目,通过发射低轨道卫星,为全球尤其是偏远地区提供高速、低延迟的互联网服务。自 2019 年起,Starlink 已部署数千颗卫星,旨在缩小全球数字鸿沟,推动互联网普及。该项目还为军事、航空等行业提供通信支持,带来广泛经济效益。
2D轨道图
3D轨道图
轨道高度分析图
轨道倾角分析图
轨道综合分析图
查看轨道综合分析图
交会数据列表
事件ID 空间交会对象 最接近时刻(TCA) 交会距离 交会风险概率(CRP) 交会风险指数(CRI) 操作
CDM_260907-130302-579506-997021
2026-09-07T
13:03:44+0000
1.025 km
极远距离
2.15192E-5 中风险 0.62
CDM_260829-231106-418906-997021
2026-08-29T
23:11:27+0000
1.641 km
极远距离
3.118354E-6 低风险 0.45
CDM_260906-161205-177606-997021
2026-09-06T
16:12:52+0000
2.294 km
极远距离
1.835578E-6 低风险 0.4
CDM_260830-004506-418906-997021
2026-08-30T
00:45:15+0000
1.994 km
极远距离
1.832317E-6 低风险 0.4
CDM_260829-112806-418906-997021
2026-08-29T
11:28:02+0000
2.030 km
极远距离
1.757779E-6 低风险 0.4
CDM_260907-175203-679906-997021
TISAT 1 (36799)
2026-09-07T
17:52:05+0000
2.917 km
极远距离
1.38483E-6 低风险 0.38
CDM_260905-195905-186306-997021
2026-09-05T
19:59:30+0000
2.626 km
极远距离
1.362587E-6 低风险 0.38
CDM_260906-162005-200106-997021
2026-09-06T
16:20:24+0000
2.696 km
极远距离
1.274553E-6 低风险 0.37
CDM_260829-130106-418906-997021
2026-08-29T
13:01:49+0000
2.398 km
极远距离
1.23608E-6 低风险 0.37